Location: Staunton
(38.1490°N, 79.0720°W)
Time: 13:53:52
(UTC-05:00)

ISS - Pass Details

Date: 09 December 2017
Orbit: 402 x 407 km, 51.6° (Epoch: 11 December)

Event Time Altitude Azimuth Distance (km) Brightness Sun altitude
Rises 18:30:32 0° 320° (NW) 2,328 0.4 -18.0°
Reaches altitude 10° 18:33:39 10° 352° (N) 1,465 -1.1 -18.6°
Enters shadow 18:33:43 10° 353° (N) 1,456 -1.1 -18.6°
